EIN39A EDDH-EIDW

Flight info

Callsign EIN39A
Flight time N/A
Altitude 38000
Route WSN5G WSN N125 ITMIZ DCT AMGOD L602 MIMVA DCT OTBED L60 PENIL UL28 LELDO M145 BAGSO BAGSO4L
Aircraft A320/M-SDE3FGHIRWY/LB1

Departure

Time 2026-04-26 16:54
Airport Hamburg Helmut Schmidt Airport (EDDH)

Arrival

Time N/A
Airport Dublin Airport (EIDW)
Time Latitude Longitude Altitude Speed Heading
2026-04-26 16:07 53.63137 10.00118 51 ft 0 kts 141°
2026-04-26 16:10 53.63137 10.00117 51 ft 0 kts 141°
2026-04-26 16:12 53.63138 10.00116 51 ft 0 kts 140°
2026-04-26 16:31 53.63137 10.00118 51 ft 0 kts 141°
2026-04-26 16:38 53.63137 10.00117 51 ft 1 kts 141°
2026-04-26 16:38 53.63156 10.00092 48 ft 4 kts 141°
2026-04-26 16:38 53.63176 10.00064 45 ft 4 kts 127°
2026-04-26 16:38 53.63179 10.00033 45 ft 4 kts 54°
2026-04-26 16:39 53.63171 10.00015 47 ft 0 kts 52°
2026-04-26 16:45 53.63181 10.00036 44 ft 8 kts 52°
2026-04-26 16:46 53.63224 10.00131 51 ft 8 kts 63°
2026-04-26 16:46 53.63191 10.00183 51 ft 9 kts 168°
2026-04-26 16:46 53.63103 10.00193 48 ft 14 kts 178°
2026-04-26 16:46 53.63022 10.00132 51 ft 12 kts 212°
2026-04-26 16:47 53.62954 10.00060 50 ft 11 kts 212°
2026-04-26 16:47 53.62914 9.99969 50 ft 9 kts 243°
2026-04-26 16:47 53.62899 9.99922 50 ft 0 kts 243°
2026-04-26 16:49 53.62899 9.99921 50 ft 0 kts 243°
2026-04-26 16:50 53.62877 9.99848 47 ft 14 kts 243°
2026-04-26 16:50 53.62893 9.99721 50 ft 8 kts 328°
2026-04-26 16:50 53.62897 9.99718 50 ft 0 kts 333°
2026-04-26 16:53 53.62915 9.99703 47 ft 15 kts 333°
2026-04-26 16:53 53.63249 9.99414 50 ft 88 kts 333°
2026-04-26 16:53 53.63970 9.98791 49 ft 143 kts 333°
2026-04-26 16:53 53.64929 9.97969 480 ft 155 kts 332°
2026-04-26 16:54 53.65899 9.97155 1152 ft 156 kts 332°
2026-04-26 16:54 53.66872 9.96325 1727 ft 166 kts 332°
2026-04-26 16:54 53.67970 9.95381 2094 ft 188 kts 331°
2026-04-26 16:54 53.69213 9.94308 2458 ft 210 kts 331°
2026-04-26 16:55 53.70519 9.93155 3259 ft 212 kts 327°
2026-04-26 16:55 53.71462 9.91283 3998 ft 215 kts 287°
2026-04-26 16:55 53.71507 9.88670 4425 ft 237 kts 258°
2026-04-26 16:55 53.71046 9.85879 4998 ft 255 kts 251°
2026-04-26 16:56 53.69792 9.80172 6762 ft 263 kts 250°
2026-04-26 16:56 53.69150 9.77249 7590 ft 267 kts 252°
2026-04-26 16:56 53.68517 9.74277 8414 ft 271 kts 253°
2026-04-26 16:57 53.67901 9.71287 9244 ft 275 kts 254°
2026-04-26 16:57 53.67280 9.68208 10082 ft 279 kts 255°
2026-04-26 16:57 53.65997 9.61675 10942 ft 314 kts 255°
2026-04-26 16:58 53.65209 9.58179 11536 ft 325 kts 246°
2026-04-26 16:58 53.64843 9.57040 11781 ft 328 kts 242°
2026-04-26 16:58 53.61243 9.48567 13809 ft 338 kts 237°
2026-04-26 16:59 53.59859 9.45349 14514 ft 340 kts 237°
2026-04-26 16:59 53.57059 9.38838 15856 ft 345 kts 237°
2026-04-26 17:00 53.54699 9.33369 16948 ft 350 kts 237°
2026-04-26 17:00 53.51809 9.26685 18231 ft 356 kts 237°
2026-04-26 17:00 53.50350 9.23310 18835 ft 359 kts 237°
2026-04-26 17:01 53.48894 9.19895 19384 ft 360 kts 241°
2026-04-26 17:01 53.47871 9.16085 19929 ft 357 kts 258°
2026-04-26 17:01 53.47550 9.11968 20490 ft 356 kts 268°
2026-04-26 17:01 53.47328 9.06450 21264 ft 359 kts 268°
2026-04-26 17:02 53.47219 9.03613 21636 ft 361 kts 268°
2026-04-26 17:02 53.47058 8.99398 22186 ft 364 kts 268°
2026-04-26 17:02 53.46895 8.95218 22735 ft 366 kts 268°
2026-04-26 17:02 53.46720 8.90914 23291 ft 369 kts 268°
2026-04-26 17:03 53.46540 8.86599 23842 ft 372 kts 268°
2026-04-26 17:03 53.46356 8.82253 24290 ft 374 kts 268°
2026-04-26 17:03 53.46169 8.77874 24703 ft 377 kts 268°
2026-04-26 17:03 53.45980 8.73454 25112 ft 380 kts 268°
2026-04-26 17:04 53.45790 8.69023 25549 ft 382 kts 268°
2026-04-26 17:04 53.45595 8.64568 25975 ft 384 kts 268°
2026-04-26 17:04 53.45395 8.60086 26384 ft 386 kts 268°
2026-04-26 17:04 53.45193 8.55585 26788 ft 387 kts 268°
2026-04-26 17:05 53.44989 8.51059 27183 ft 389 kts 268°
2026-04-26 17:05 53.44784 8.46525 27575 ft 391 kts 268°
2026-04-26 17:05 53.44583 8.42017 27948 ft 393 kts 268°
2026-04-26 17:05 53.44377 8.37435 28303 ft 395 kts 268°
2026-04-26 17:06 53.44168 8.32831 28668 ft 397 kts 268°
2026-04-26 17:06 53.43953 8.28196 29033 ft 399 kts 268°
2026-04-26 17:06 53.43736 8.23555 29395 ft 400 kts 268°
2026-04-26 17:06 53.43515 8.18920 29759 ft 402 kts 268°
2026-04-26 17:07 53.43289 8.14213 30099 ft 403 kts 268°
2026-04-26 17:07 53.43062 8.09513 30425 ft 405 kts 268°
2026-04-26 17:07 53.42831 8.04790 30701 ft 407 kts 268°
2026-04-26 17:07 53.42598 8.00046 30965 ft 409 kts 268°
2026-04-26 17:08 53.42364 7.95311 31222 ft 410 kts 268°
2026-04-26 17:08 53.42127 7.90514 31464 ft 412 kts 268°
2026-04-26 17:08 53.41891 7.85713 31701 ft 414 kts 268°
2026-04-26 17:08 53.41649 7.80905 32017 ft 413 kts 268°
2026-04-26 17:09 53.41402 7.76113 32359 ft 412 kts 268°
2026-04-26 17:09 53.41237 7.72933 32573 ft 412 kts 267°
2026-04-26 17:09 53.40907 7.66597 32992 ft 412 kts 267°
2026-04-26 17:09 53.40659 7.61827 33327 ft 411 kts 268°
2026-04-26 17:10 53.40407 7.57066 33678 ft 410 kts 268°
2026-04-26 17:10 53.40153 7.52296 34006 ft 410 kts 268°
2026-04-26 17:10 53.39900 7.47549 34358 ft 409 kts 268°
2026-04-26 17:10 53.39646 7.42808 34644 ft 408 kts 268°
2026-04-26 17:11 53.39390 7.38072 34905 ft 408 kts 268°
2026-04-26 17:11 53.39134 7.33340 35158 ft 408 kts 268°
2026-04-26 17:11 53.38877 7.28592 35400 ft 408 kts 268°
2026-04-26 17:11 53.38614 7.23862 35630 ft 408 kts 268°
2026-04-26 17:12 53.38079 7.14407 36078 ft 407 kts 268°
2026-04-26 17:12 53.37811 7.09686 36299 ft 407 kts 268°
2026-04-26 17:13 53.37265 7.00245 36717 ft 407 kts 268°
2026-04-26 17:13 53.36991 6.95526 36915 ft 407 kts 268°
2026-04-26 17:13 53.36438 6.86081 37297 ft 407 kts 267°
2026-04-26 17:14 53.36164 6.81428 37478 ft 407 kts 268°
2026-04-26 17:14 53.35607 6.71991 37823 ft 407 kts 267°
2026-04-26 17:14 53.35327 6.67283 37987 ft 407 kts 267°
2026-04-26 17:15 53.34756 6.57852 38313 ft 407 kts 267°
2026-04-26 17:15 53.34466 6.53143 38340 ft 406 kts 267°
2026-04-26 17:16 53.33883 6.43743 38337 ft 406 kts 267°
2026-04-26 17:16 53.33292 6.34342 38337 ft 406 kts 267°
2026-04-26 17:17 53.32691 6.24946 38340 ft 406 kts 267°
2026-04-26 17:17 53.32085 6.15554 38330 ft 406 kts 266°
2026-04-26 17:18 53.31465 6.06157 38343 ft 406 kts 266°
2026-04-26 17:18 53.30853 5.96843 38354 ft 405 kts 266°
2026-04-26 17:19 53.29922 5.82784 38355 ft 405 kts 266°
2026-04-26 17:19 53.29278 5.73423 38354 ft 405 kts 266°
2026-04-26 17:20 53.28735 5.65634 38360 ft 405 kts 266°
2026-04-26 17:20 53.27975 5.54694 38339 ft 405 kts 266°
2026-04-26 17:21 53.27327 5.45397 38349 ft 405 kts 266°
2026-04-26 17:21 53.26661 5.36070 38351 ft 405 kts 266°
2026-04-26 17:22 53.25988 5.26709 38357 ft 405 kts 266°
2026-04-26 17:22 53.25304 5.17366 38353 ft 405 kts 266°
2026-04-26 17:23 53.24616 5.08020 38354 ft 405 kts 265°
2026-04-26 17:23 53.23921 4.98684 38352 ft 405 kts 265°
2026-04-26 17:24 53.23219 4.89362 38360 ft 405 kts 265°
2026-04-26 17:24 53.22511 4.80027 38368 ft 405 kts 265°
2026-04-26 17:25 53.21805 4.70766 38368 ft 405 kts 265°
2026-04-26 17:25 53.21083 4.61451 38364 ft 405 kts 265°
2026-04-26 17:26 53.20346 4.52140 38365 ft 405 kts 265°
2026-04-26 17:26 53.19599 4.42817 38363 ft 405 kts 265°
2026-04-26 17:27 53.18858 4.33505 38360 ft 405 kts 265°
2026-04-26 17:27 53.18109 4.24210 38357 ft 405 kts 264°
2026-04-26 17:28 53.17349 4.14908 38334 ft 405 kts 264°
2026-04-26 17:28 53.16587 4.05666 38326 ft 405 kts 264°
2026-04-26 17:29 53.15938 3.97864 38332 ft 405 kts 264°
2026-04-26 17:29 53.15028 3.87063 38347 ft 405 kts 264°
2026-04-26 17:30 53.14238 3.77758 38351 ft 406 kts 264°
2026-04-26 17:30 53.13441 3.68443 38355 ft 406 kts 264°
2026-04-26 17:31 53.12630 3.59145 38365 ft 406 kts 264°
2026-04-26 17:31 53.11821 3.49904 38360 ft 406 kts 264°
2026-04-26 17:32 53.11000 3.40598 38353 ft 406 kts 263°
2026-04-26 17:32 53.10252 3.31290 38354 ft 405 kts 270°
2026-04-26 17:33 53.10684 3.21997 38344 ft 403 kts 278°
2026-04-26 17:34 53.11657 3.08103 38342 ft 403 kts 277°
2026-04-26 17:34 53.12298 2.98829 38342 ft 403 kts 277°
2026-04-26 17:35 53.12929 2.89550 38346 ft 404 kts 277°
2026-04-26 17:35 53.13547 2.80247 38342 ft 403 kts 277°
2026-04-26 17:36 53.14163 2.70961 38341 ft 403 kts 277°
2026-04-26 17:36 53.14769 2.61758 38342 ft 404 kts 277°
2026-04-26 17:37 53.15376 2.52446 38334 ft 404 kts 277°
2026-04-26 17:37 53.15975 2.43104 38336 ft 405 kts 277°
2026-04-26 17:38 53.16857 2.29117 38339 ft 405 kts 277°
2026-04-26 17:38 53.17447 2.19781 38340 ft 405 kts 276°
2026-04-26 17:39 53.18020 2.10442 38347 ft 405 kts 276°
2026-04-26 17:39 53.18580 2.01090 38336 ft 405 kts 276°
2026-04-26 17:40 53.18954 1.94834 38338 ft 405 kts 276°
2026-04-26 17:40 53.19687 1.82375 38340 ft 406 kts 276°
2026-04-26 17:41 53.20233 1.73001 38339 ft 406 kts 276°
2026-04-26 17:41 53.20765 1.63628 38340 ft 406 kts 276°
2026-04-26 17:42 53.21298 1.54252 38339 ft 406 kts 276°
2026-04-26 17:42 53.21819 1.44929 38339 ft 406 kts 275°
2026-04-26 17:43 53.22336 1.35562 38334 ft 406 kts 275°
2026-04-26 17:43 53.22845 1.26176 38334 ft 405 kts 275°
2026-04-26 17:44 53.23338 1.16799 38325 ft 405 kts 275°
2026-04-26 17:44 53.23834 1.07425 38323 ft 405 kts 275°
2026-04-26 17:45 53.24317 0.98055 38319 ft 405 kts 275°
2026-04-26 17:45 53.24791 0.88740 38323 ft 405 kts 275°
2026-04-26 17:46 53.25256 0.79370 38336 ft 405 kts 275°
2026-04-26 17:46 53.25720 0.69997 38329 ft 404 kts 275°
2026-04-26 17:47 53.26022 0.63792 38324 ft 404 kts 274°
2026-04-26 17:47 53.26617 0.51327 38315 ft 403 kts 274°
2026-04-26 17:48 53.27061 0.41989 38316 ft 403 kts 274°
2026-04-26 17:48 53.27495 0.32649 38314 ft 403 kts 274°
2026-04-26 17:49 53.27917 0.23308 38314 ft 403 kts 274°
2026-04-26 17:49 53.28328 0.13976 38310 ft 403 kts 274°
2026-04-26 17:50 53.28664 0.06215 38309 ft 403 kts 274°
2026-04-26 17:50 53.29445 -0.03051 38313 ft 403 kts 279°
2026-04-26 17:51 53.30414 -0.12280 38312 ft 403 kts 279°
2026-04-26 17:51 53.31372 -0.21525 38312 ft 403 kts 278°
2026-04-26 17:52 53.32315 -0.30779 38298 ft 403 kts 278°
2026-04-26 17:52 53.33238 -0.39968 38293 ft 403 kts 278°
2026-04-26 17:53 53.34172 -0.49214 38291 ft 403 kts 278°
2026-04-26 17:54 53.35564 -0.63103 38291 ft 403 kts 278°
2026-04-26 17:54 53.36478 -0.72358 38290 ft 403 kts 278°
2026-04-26 17:55 53.37388 -0.81617 38292 ft 403 kts 278°
2026-04-26 17:55 53.38287 -0.90883 38290 ft 403 kts 278°
2026-04-26 17:56 53.39176 -1.00149 38292 ft 403 kts 278°
2026-04-26 17:57 53.40930 -1.18661 38287 ft 404 kts 277°
2026-04-26 17:57 53.41805 -1.27971 38288 ft 404 kts 277°
2026-04-26 17:58 53.43534 -1.46576 38285 ft 404 kts 277°
2026-04-26 17:59 53.44806 -1.60490 38289 ft 404 kts 277°
2026-04-26 17:59 53.45646 -1.69793 38282 ft 403 kts 277°
2026-04-26 18:00 53.46473 -1.79108 38281 ft 403 kts 277°
2026-04-26 18:00 53.47299 -1.88438 38283 ft 404 kts 277°
2026-04-26 18:01 53.48123 -1.97763 38284 ft 404 kts 277°
2026-04-26 18:01 53.48935 -2.07102 38290 ft 404 kts 276°
2026-04-26 18:02 53.49598 -2.14865 38285 ft 404 kts 276°
2026-04-26 18:02 53.50526 -2.25789 38283 ft 404 kts 276°
2026-04-26 18:03 53.51317 -2.35087 38283 ft 404 kts 276°
2026-04-26 18:03 53.52100 -2.44443 38283 ft 404 kts 276°
2026-04-26 18:04 53.52876 -2.53794 38287 ft 404 kts 276°
2026-04-26 18:05 53.54017 -2.67835 38278 ft 404 kts 276°
2026-04-26 18:05 53.54775 -2.77199 38276 ft 404 kts 276°
2026-04-26 18:05 53.55154 -2.81893 38058 ft 405 kts 275°
2026-04-26 18:06 53.55530 -2.86589 37782 ft 404 kts 275°
2026-04-26 18:06 53.55903 -2.91271 37511 ft 404 kts 275°
2026-04-26 18:06 53.56272 -2.95960 37241 ft 404 kts 275°
2026-04-26 18:06 53.56639 -3.00643 36974 ft 404 kts 275°
2026-04-26 18:07 53.57006 -3.05321 36710 ft 403 kts 275°
2026-04-26 18:07 53.57367 -3.09945 36460 ft 403 kts 275°
2026-04-26 18:07 53.57729 -3.14593 36120 ft 399 kts 274°
2026-04-26 18:07 53.57970 -3.17710 35802 ft 396 kts 274°
2026-04-26 18:08 53.58432 -3.23746 35186 ft 390 kts 274°
2026-04-26 18:08 53.58774 -3.28254 34713 ft 386 kts 273°
2026-04-26 18:08 53.59111 -3.32721 34246 ft 383 kts 273°
2026-04-26 18:08 53.59444 -3.37151 33745 ft 379 kts 273°
2026-04-26 18:09 53.59771 -3.41534 33291 ft 375 kts 273°
2026-04-26 18:09 53.60094 -3.45859 32847 ft 371 kts 273°
2026-04-26 18:09 53.60412 -3.50138 32403 ft 367 kts 274°
2026-04-26 18:09 53.60724 -3.54386 31976 ft 363 kts 274°
2026-04-26 18:10 53.61030 -3.58595 31544 ft 360 kts 274°
2026-04-26 18:10 53.61332 -3.62767 31117 ft 358 kts 274°
2026-04-26 18:10 53.61796 -3.66847 30676 ft 360 kts 283°
2026-04-26 18:10 53.62668 -3.70811 30213 ft 362 kts 289°
2026-04-26 18:11 53.63620 -3.74722 29757 ft 359 kts 288°
2026-04-26 18:11 53.64555 -3.78603 29322 ft 356 kts 288°
2026-04-26 18:11 53.65478 -3.82463 28897 ft 353 kts 288°
2026-04-26 18:11 53.66386 -3.86289 28490 ft 350 kts 288°
2026-04-26 18:12 53.67283 -3.90076 28089 ft 347 kts 288°
2026-04-26 18:12 53.68175 -3.93840 27679 ft 344 kts 288°
2026-04-26 18:12 53.69061 -3.97575 27255 ft 342 kts 288°
2026-04-26 18:12 53.69940 -4.01287 26837 ft 340 kts 288°
2026-04-26 18:13 53.70816 -4.04985 26417 ft 338 kts 289°
2026-04-26 18:13 53.71527 -4.08733 25991 ft 333 kts 279°
2026-04-26 18:13 53.71817 -4.12590 25560 ft 330 kts 271°
2026-04-26 18:13 53.71908 -4.15143 25280 ft 329 kts 271°
2026-04-26 18:14 53.72100 -4.20295 24417 ft 338 kts 272°
2026-04-26 18:14 53.72250 -4.24280 23872 ft 341 kts 272°
2026-04-26 18:14 53.72400 -4.28277 23351 ft 341 kts 272°